TimeEST,TemperatureF,Dew PointF,Humidity,Sea Level PressureIn,VisibilityMPH,Wind Direction,Wind SpeedMPH,Gust SpeedMPH,PrecipitationIn,Events,Conditions,WindDirDegrees,DateUTC
12:54 AM,27.0,23.0,85,30.01,10.0,NNE,3.5,-,N/A,,Overcast,30,2012-12-29 05:54:00
1:39 AM,26.6,23.0,86,29.95,10.0,ESE,6.9,-,N/A,,Overcast,120,2012-12-29 06:39:00
1:54 AM,27.0,23.0,85,29.98,10.0,ESE,6.9,-,N/A,,Overcast,110,2012-12-29 06:54:00
2:54 AM,27.0,21.9,81,29.94,10.0,East,8.1,-,N/A,,Overcast,80,2012-12-29 07:54:00
3:54 AM,27.0,21.0,78,29.95,10.0,East,4.6,-,N/A,,Mostly Cloudy,100,2012-12-29 08:54:00
4:20 AM,26.6,21.2,80,29.90,10.0,ESE,6.9,-,N/A,,Overcast,110,2012-12-29 09:20:00
4:54 AM,26.1,21.0,81,29.92,10.0,ENE,5.8,-,N/A,,Overcast,60,2012-12-29 09:54:00
5:54 AM,25.0,21.9,88,29.90,6.0,ENE,8.1,-,0.00,Snow,Light Snow,70,2012-12-29 10:54:00
6:41 AM,26.6,21.2,80,29.83,2.0,East,8.1,-,0.00,Snow,Light Snow,80,2012-12-29 11:41:00
6:48 AM,24.8,21.2,86,29.82,1.2,East,8.1,-,0.01,Snow,Light Snow,80,2012-12-29 11:48:00
6:54 AM,24.8,23.0,93,29.83,1.0,East,9.2,-,N/A,Snow,Light Snow,80,2012-12-29 11:54:00
7:54 AM,26.1,23.0,88,29.81,1.8,NE,10.4,-,0.01,Snow,Light Snow,50,2012-12-29 12:54:00
8:09 AM,26.6,23.0,86,29.77,0.5,ENE,12.7,-,0.00,Snow,Light Snow,60,2012-12-29 13:09:00
8:30 AM,24.8,23.0,93,29.77,0.5,ENE,9.2,-,0.01,Snow,Snow,60,2012-12-29 13:30:00
8:54 AM,26.1,23.0,88,29.80,0.5,ENE,9.2,-,0.02,Snow,Snow,70,2012-12-29 13:54:00
9:54 AM,26.1,24.1,92,29.80,0.5,East,4.6,-,0.04,Fog-Snow,Snow,80,2012-12-29 14:54:00
10:54 AM,26.1,24.1,92,29.78,0.5,NE,6.9,-,0.04,Fog-Snow,Snow,40,2012-12-29 15:54:00
11:33 AM,26.6,23.0,86,29.72,0.5,NE,9.2,-,0.03,Snow,Light Snow,50,2012-12-29 16:33:00
11:54 AM,26.1,23.0,88,29.73,1.0,NE,9.2,-,0.03,Snow,Light Snow,40,2012-12-29 16:54:00
12:16 PM,26.6,24.8,93,29.68,0.8,NNE,9.2,-,0.00,Snow,Light Snow,30,2012-12-29 17:16:00
12:37 PM,26.6,24.8,93,29.67,1.0,NNE,8.1,-,0.01,Snow,Light Snow,20,2012-12-29 17:37:00
12:54 PM,27.0,25.0,92,29.70,1.0,North,6.9,-,0.01,Snow,Light Snow,10,2012-12-29 17:54:00
1:18 PM,28.4,24.8,86,29.66,0.8,North,5.8,-,0.01,Snow,Light Snow,10,2012-12-29 18:18:00
1:54 PM,28.0,25.0,88,29.69,0.5,North,9.2,-,0.02,Fog-Snow,Snow,10,2012-12-29 18:54:00
2:29 PM,28.4,24.8,86,29.67,0.8,North,9.2,-,0.01,Snow,Light Snow,350,2012-12-29 19:29:00
2:54 PM,28.0,25.0,88,29.70,0.8,North,13.8,19.6,0.01,Snow,Light Snow,360,2012-12-29 19:54:00
3:54 PM,28.0,25.0,88,29.72,1.0,North,11.5,-,0.01,Snow,Light Snow,350,2012-12-29 20:54:00
4:24 PM,26.6,24.8,93,29.70,2.5,NNW,13.8,-,0.01,Snow,Light Snow,340,2012-12-29 21:24:00
4:30 PM,26.6,24.8,93,29.70,6.0,NNW,11.5,-,0.01,Snow,Light Snow,340,2012-12-29 21:30:00
4:54 PM,27.0,24.1,89,29.74,4.0,North,12.7,-,0.01,Snow,Light Snow,350,2012-12-29 21:54:00
5:46 PM,26.6,24.8,93,29.73,3.0,NNW,9.2,-,0.00,Snow,Light Snow,330,2012-12-29 22:46:00
5:54 PM,27.0,25.0,92,29.77,4.0,NW,11.5,-,0.00,Snow,Light Snow,320,2012-12-29 22:54:00
6:54 PM,26.1,23.0,88,29.80,5.0,NW,10.4,-,0.00,Snow,Light Snow,320,2012-12-29 23:54:00
7:30 PM,26.6,21.2,80,29.78,2.0,NW,11.5,-,0.01,Snow,Light Snow,320,2012-12-30 00:30:00
7:54 PM,25.0,21.9,88,29.82,2.5,WNW,10.4,-,0.01,Snow,Light Snow,300,2012-12-30 00:54:00
8:01 PM,24.8,21.2,86,29.79,3.0,NW,9.2,-,0.00,Snow,Light Snow,310,2012-12-30 01:01:00
8:36 PM,24.8,21.2,86,29.80,5.0,NW,11.5,18.4,0.00,Snow,Light Snow,310,2012-12-30 01:36:00
8:54 PM,25.0,21.0,85,29.83,10.0,NW,11.5,-,0.00,,Overcast,310,2012-12-30 01:54:00
9:40 PM,24.8,21.2,86,29.82,4.0,WNW,6.9,-,0.00,Snow,Light Snow,290,2012-12-30 02:40:00
9:54 PM,25.0,21.0,85,29.85,5.0,WNW,6.9,-,0.00,Snow,Light Snow,290,2012-12-30 02:54:00
10:14 PM,24.8,21.2,86,29.83,8.0,WNW,8.1,-,0.00,Snow,Light Snow,290,2012-12-30 03:14:00
10:45 PM,24.8,21.2,86,29.83,9.0,West,6.9,-,0.00,Snow,Light Snow,270,2012-12-30 03:45:00
10:54 PM,25.0,21.9,88,29.87,9.0,West,8.1,-,0.00,Snow,Light Snow,260,2012-12-30 03:54:00
11:32 PM,24.8,21.2,86,29.85,9.0,West,11.5,-,0.00,Snow,Light Snow,260,2012-12-30 04:32:00
11:54 PM,24.1,19.9,84,29.88,9.0,West,8.1,-,0.00,,Mostly Cloudy,260,2012-12-30 04:54:00